OpenBCM V2.0.3 (Linux)

Packet Radio Mailbox

IZ3LSV

[San Dona' di P. JN]

 Login: GUEST





  
LU9DCE > KEPS     11.02.18 18:13l 263 Lines 13076 Bytes #999 (0) @ WW
BID : 31553_LU9DCE
Read: GUEST
Subj: SAT TLE OF 11
Path: IZ3LSV<IR2UBX<EA2RCF<LU9DCE
Sent: 180211/1601Z @:LU9DCE.TOR.BA.ARG.SOAM #:31553 [TORTUGUITAS] FBB7.07
From: LU9DCE@LU9DCE.TOR.BA.ARG.SOAM
To  : KEPS@WW


            __    _  _  ___  ____   ___  ____    ____  ____  ____
           (  )  / )( \/ _ \(    \ / __)(  __)  (  _ \(  _ \/ ___)
           / (_/\) \/ (\__  )) D (( (__  ) _)    ) _ ( ) _ (\___ \
           \____/\____/(___/(____/ \___)(____)  (____/(____/(____/
               ESTACION DE PACKET RADIO - BUENOS AIRES (GF05OM)
                   BOLETINES INFORMATIVOS PROGRAMADOS (BIP)
                    LU9DCE@GMX.COM - RF 147070 @ 1200 BAUD
                           telnet lu9dce.dynu.com
             BBS port 6300 / NODE port 3694 / DXCLUSTER port 9000

+------------------------------------------------------------------------------+
OSCAR 7
1  7530U 74089B   18041.84859894 -.00000028 +00000-0 +10174-3 0  9999
2  7530 101.6695 011.1528 0011831 219.0751 209.4238 12.53631158978537
OSCAR 11 (UoSAT 2)
1 14781U 84021B   18041.82666992  .00000080  00000-0  16013-4 0  9991
2 14781  97.6668  83.3160 0009619 131.5668 228.6372 14.82979241825711
OSCAR 19 (LUSAT)
1 20442U 90005G   18041.82230263 -.00000003 +00000-0 +14878-4 0  9992
2 20442 098.5993 341.1701 0012098 158.1541 202.0161 14.32886406465738
KITSAT B
1 22825U 93061C   18042.48751188 -.00000008  00000-0  14638-4 0  9990
2 22825  98.8471  16.4299 0008420   0.7869 359.3324 14.30021442271609
POSAT 1
1 22826U 93061D   18042.53340271 -.00000001  00000-0  17453-4 0  9995
2 22826  98.8413  16.5300 0008746 350.0687  10.0321 14.30352311271790
RADIO ROSTO
1 23439U 94085A   18041.77688457 -.00000030 +00000-0 +36288-3 0  9997
2 23439 064.8146 193.2754 0161417 204.5162 258.1761 11.27566663952316
JAS 2
1 24278U 96046B   18041.85893343 -.00000027 +00000-0 +57714-5 0  9994
2 24278 098.5292 257.9335 0351356 078.7058 285.3344 13.53081143060905
TECHSAT 1B
1 25397U 98043D   18041.80483870 -.00000023 +00000-0 +91369-5 0  9991
2 25397 098.6376 344.4204 0002085 054.9429 305.1945 14.23639461017527
ISS (ZARYA)
1 25544U 98067A   18041.94501157 +.00001243 +00000-0 +26064-4 0  9998
2 25544 051.6431 288.0544 0003469 093.1259 087.8522 15.54078446098883
PCSAT
1 26931U 01043C   18042.50531865 -.00000043  00000-0  15500-4 0  9990
2 26931  67.0504 193.7050 0005666 281.1396  78.9068 14.30493530854572
SAUDISAT 1C
1 27607U 02058C   18042.20908258 -.00000027  00000-0  16849-4 0  9998
2 27607  64.5554 115.0941 0050096 358.8615   1.2365 14.75418458814377
CUTE-1
1 27844U 03031E   18041.94712080 +.00000061 +00000-0 +47145-4 0  9999
2 27844 098.6889 052.4534 0010116 022.9981 337.1647 14.22093564758218
CUBESAT XI 4
1 27848U 03031J   18041.94180284 +.00000043 +00000-0 +39427-4 0  9992
2 27848 098.6979 052.8022 0010192 032.6836 327.4971 14.21700297758094
MOZHAYETS 4
1 27939U 03042A   18042.57713514  .00000104  00000-0  27175-4 0  9998
2 27939  97.9690 185.1094 0013008 181.1861 233.1335 14.66655981768404
CUBESAT XI 5
1 28895U 05043F   18041.93053777 +.00000135 +00000-0 +34606-4 0  9991
2 28895 097.8892 198.6370 0018159 107.7862 252.5324 14.63507126655178
CUTE-1.7+APD II
1 32785U 08021C   18041.83523773 +.00000222 +00000-0 +29730-4 0  9999
2 32785 097.5531 060.0112 0014662 096.9892 263.2994 14.88059026530386
DELFI C3
1 32789U 08021G   18041.92941056 +.00000623 +00000-0 +47200-4 0  9998
2 32789 097.5293 099.8538 0012694 016.1636 343.9993 15.05734726532687
SEEDS
1 32791U 08021J   18041.59175664 +.00000346 +00000-0 +40792-4 0  9999
2 32791 097.5454 064.8340 0014956 081.5155 278.7758 14.90463519530579
YUBELEINY
1 32953U 08025A   18042.16171608  .00000018  00000-0  60605-4 0  9992
2 32953  82.5008  91.0627 0020311 123.6768 236.6252 12.43081437441112
PRISM (HITOMI)
1 33493U 09002B   18042.50205861 -.00000130  00000-0 -58744-5 0  9994
2 33493  98.1421 299.6891 0016216  16.3515 343.8236 14.96063244491552
KKS-1 (KISEKI)
1 33499U 09002H   18042.43546617  .00000099  00000-0  22754-4 0  9992
2 33499  98.3482 220.1533 0008682 340.2792  19.8080 14.75292845486631
SWISSCUBE
1 35932U 09051B   18042.34479260  .00000104  00000-0  34611-4 0  9991
2 35932  98.5249 190.6204 0006874 230.3619 129.6972 14.56119155445122
BEESAT
1 35933U 09051C   18041.96890658  .00000093  00000-0  32038-4 0  9995
2 35933  98.5288 191.7019 0004860 245.0108 115.0585 14.56227432445173
ITUPSAT 1
1 35935U 09051E   18041.95255575  .00000097  00000-0  33408-4 0  9995
2 35935  98.5400 191.9398 0007228 241.1420 118.9052 14.55409455444961
XIWANG-1 (HOPE-1)
1 36122U 09072B   18041.92020775 -.00000005 +00000-0 +97429-4 0  9999
2 36122 100.0839 062.4225 0007958 047.9182 312.2608 13.16343295391932
TISAT 1
1 36799U 10035E   18042.33075255  .00000322  00000-0  38883-4 0  9999
2 36799  98.0866 175.3733 0011120 260.1031  99.8931 14.90689510411402
JUGNU
1 37839U 11058B   18041.41833181  .00000307  00000-0  22080-4 0  9994
2 37839  19.9620  85.9443 0018734 289.8804 186.6153 14.12608760327427
SRMSAT
1 37841U 11058D   18042.52926387  .00000292  00000-0  15439-4 0  9994
2 37841  19.9718 125.8193 0011703 189.6525 288.0286 14.10597938327112
M-CUBED/EXP-1 PRIME
1 37855U 11061F   18042.49526908  .00001026  00000-0  60503-4 0  9992
2 37855 101.7246  40.7055 0177816  94.1026 268.0529 15.04037354342759
HORYU 2
1 38340U 12025D   18041.94228039 +.00000182 +00000-0 +34806-4 0  9995
2 38340 098.3743 059.2771 0010438 250.5701 109.4380 14.75496377298086
STRAND 1
1 39090U 13009E   18041.90668647 +.00000032 +00000-0 +26538-4 0  9997
2 39090 098.5328 249.8394 0008451 317.6844 042.3688 14.35010309259696
BEESAT 3
1 39134U 13015E   18041.72578308  .00001345  00000-0  73569-4 0  9991
2 39134  64.8639 175.8755 0025841 227.6791 132.2147 15.18792102265694
SOMP
1 39135U 13015F   18041.74095945 +.00001293 +00000-0 +75755-4 0  9996
2 39135 064.8690 187.5652 0030472 249.1157 110.6705 15.16375398265084
BEESAT 2
1 39136U 13015G   18041.86469673  .00001047  00000-0  64186-4 0  9996
2 39136  64.8689 189.6153 0030164 250.3826 109.4043 15.15854485265446
CUBEBUG 1
1 39153U 13018D   18042.18248225  .00000170  00000-0  29229-4 0  9997
2 39153  97.9795 138.1865 0016811 359.2783   0.8402 14.80337247258957
ZACUBE
1 39417U 13066B   18041.89549406 +.00000188 +00000-0 +30233-4 0  9991
2 39417 097.6022 077.1838 0058565 207.5052 152.3059 14.80872472228107
TRITON 1
1 39427U 13066M   18041.89830427  .00000152  00000-0  32609-4 0  9998
2 39427  97.6376  46.2298 0112952 304.4358  54.6213 14.67608855226059
GOMX 1
1 39430U 13066Q   18042.53020517  .00000264  00000-0  56810-4 0  9999
2 39430  97.6844  28.5521 0151936   7.7839 352.5669 14.59020689224830
HUMSAT D
1 39433U 13066T   18042.14132621  .00000231  00000-0  28149-4 0  9997
2 39433  97.6219 102.8261 0032121 140.4030 219.9544 14.91742760229636
50 SAT
1 39436U 13066W   18042.30173447  .00062656  00000-0  81790-3 0  9998
2 39436  97.7113 168.3316 0006183 286.4388  73.6187 15.58461568233593
CUBEBUG 2
1 39440U 13066AA  18042.01668974  .00000179  00000-0  32179-4 0  9995
2 39440  97.6097  64.6992 0079299 244.8028 114.4945 14.75609727227311
FUNCUBE 1
1 39444U 13066AE  18041.61945618 +.00000239 +00000-0 +36023-4 0  9996
2 39444 097.6036 078.2859 0057830 204.2378 155.6114 14.81636815226326
UWE-3
1 39446U 13066AG  18042.05246073  .00000167  00000-0  29149-4 0  9997
2 39446  97.6046  70.6755 0069282 226.2334 133.3131 14.78142499226485
SPROUT
1 39770U 14029E   18042.20150035  .00000549  00000-0  67935-4 0  9995
2 39770  97.8729 144.3603 0007492 259.6906 100.3462 14.86661370201641
UNISAT 6
1 40012U 14033C   18042.20409858  .00000140  00000-0  28622-4 0  9998
2 40012  97.8270 283.0038 0057220 244.5862 114.9418 14.73762024196148
DUCHIFAT 1
1 40021U 14033M   18041.96231276  .00000343  00000-0  41292-4 0  9990
2 40021  97.9179 320.4549 0011753 231.3453 128.6713 14.90192904198157
QB50P1
1 40025U 14033R   18041.71602747 +.00000249 +00000-0 +32711-4 0  9993
2 40025 097.9090 317.3556 0011253 238.3084 121.7036 14.88632342197465
CHUBUSAT 1
1 40300U 14070C   18042.20439475  .00000570  00000-0  28398-4 0  9994
2 40300  97.3752 122.5457 0020067 350.1095  62.2397 15.21377059181128
NUDT-PHONESAT
1 40900U 15049B   18041.93014051 +.00001861 +00000-0 +87437-4 0  9998
2 40900 097.4429 051.6783 0015245 109.0849 251.2039 15.20761760132720
ZDPS 2A
1 40901U 15049C   18042.48461431  .00000775  00000-0  42722-4 0  9999
2 40901  97.4594  50.8125 0015355 112.2187 248.0677 15.16844511132608
ZDPS 2B
1 40902U 15049D   18042.17777579  .00000733  00000-0  40791-4 0  9997
2 40902  97.4483  48.7451 0015426 110.6995 249.5893 15.16651742132543
XW-2A
1 40903U 15049E   18042.53081949  .00001653  00000-0  43436-4 0  9998
2 40903  97.3995  76.0687 0015907 120.3451 239.9370 15.39984870134467
KAITUO 1A
1 40904U 15049F   18042.52043421  .00000276  00000-0  18299-4 0  9990
2 40904  97.4583  48.4721 0016356 110.4573   5.1107 15.14875482132479
OBJECT G
1 40905U 15049G   18042.50138655  .00000372  00000-0  24121-4 0  9991
2 40905  97.4567  46.7410 0017490 104.3783 255.9391 15.13852722132407
XW-2C
1 40906U 15049H   18042.50456766  .00000581  00000-0  34546-4 0  9992
2 40906  97.4589  48.3239 0016734 104.2156 256.0937 15.15008378132468
XW-2D
1 40907U 15049J   18042.53503460  .00000646  00000-0  37852-4 0  9995
2 40907  97.4561  48.0674 0016114 102.1331 258.1708 15.15145719132474
LILACSAT 2
1 40908U 15049K   18041.93038773 +.00000314 +00000-0 +21157-4 0  9992
2 40908 097.4668 046.9918 0017680 104.6940 255.6253 15.13401782132271
XW-2F
1 40910U 15049M   18042.18286353  .00000971  00000-0  53510-4 0  9999
2 40910  97.4570  48.8107 0016866 100.1121 260.2016 15.16248194132362
XW-2B
1 40911U 15049N   18042.21787259  .00000609  00000-0  35958-4 0  9999
2 40911  97.4599  48.2444 0016010 103.5617 256.7400 15.15094431132325
